Regional Weather Roundup
Issued by NWS

Home | Current Version | Previous Version | Text Only | Print | Product List | Glossary On
Versions: 1 2 3 4 5 6 7 8 9 10 11 12 13 14 15 16 17 18 19 20 21 22 23 24 25 26 27 28 29 30 31 32 33 34 35 36 37 38 39 40 41 42 43 44 45 46 47 48 49 50
000
ASUS43 KLSX 221159
RWRMO

WEATHER SUMMARY FOR MISSOURI
NATIONAL WEATHER SERVICE SPRINGFIELD MO
700 AM CDT TUE JUL 22 2014

NOTE: "FAIR" INDICATES FEW OR NO CLOUDS BELOW 12,000 FEET WITH NO
       SIGNIFICANT WEATHER AND/OR OBSTRUCTIONS TO VISIBILITY.
       CURRENT SKY AND/OR WEATHER CONDITIONS ARE NOT AVAILABLE FOR
       CHILLICOTHE AND FARMINGTON.

MOZ001>031-035>038-043-044-053-054-221300-
...NORTHERN AND WESTERN MISSOURI...

CITY           SKY/WX    TMP DP  RH WIND       PRES   REMARKS
KANSAS CTY INT MOCLDY    77  73  87 S13       30.01S
6HR MIN TEMP:  76; 6HR MAX TEMP:  80;

KANSAS C DTWN  CLEAR     79  73  82 S13       30.01R
6HR MIN TEMP:  78; 6HR MAX TEMP:  83;

LEE`S SUMMIT   CLEAR     75  72  90 S7        30.05R
6HR MIN TEMP:  75; 6HR MAX TEMP:  80;

ST JOSEPH      PTCLDY    77  75  93 S8        29.99R FOG
6HR MIN TEMP:  77; 6HR MAX TEMP:  82;

CHILLICOTHE      N/A     76  71  85 S9        30.03R
6HR MIN TEMP:  76; 6HR MAX TEMP:  80;

KIRKSVILLE     PTCLDY    75  68  78 S12       30.03F
6HR MIN TEMP:  71; 6HR MAX TEMP:  75;


$$
MOZ066>068-077>081-088>096-101>105-221300-
...SOUTHWEST MISSOURI...

CITY           SKY/WX    TMP DP  RH WIND       PRES   REMARKS
SPRINGFIELD    CLEAR     70  67  90 S8        30.10R
6HR MIN TEMP:  70; 6HR MAX TEMP:  74;

JOPLIN         CLEAR     72  68  87 S7        30.09R
6HR MIN TEMP:  71; 6HR MAX TEMP:  77;


$$
MOZ032>034-039>042-045>050-055>058-069>072-221300-
...CENTRAL MISSOURI...

CITY           SKY/WX    TMP DP  RH WIND       PRES   REMARKS
COLUMBIA       CLEAR     69  67  93 S5        30.09R
6HR MIN TEMP:  68; 6HR MAX TEMP:  72;

JEFFERSON CITY CLEAR     69  65  86 CALM      30.08R
6HR MIN TEMP:  69; 6HR MAX TEMP:  75;

ROLLA          CLEAR     70  64  81 S9        30.08S
6HR MIN TEMP:  68; 6HR MAX TEMP:  71;

SEDALIA        CLEAR     72  67  84 S7        30.08R
6HR MIN TEMP:  71; 6HR MAX TEMP:  77;

OSAGE BEACH    CLEAR     70  64  83 S3        30.09R

$$
MOZ051-052-059>065-221300-
...EAST CENTRAL MISSOURI...

CITY           SKY/WX    TMP DP  RH WIND       PRES   REMARKS
ST LOUIS INTL  SUNNY     74  65  73 S7        30.10R
6HR MIN TEMP:  73; 6HR MAX TEMP:  78;

SPIRIT OF STL  SUNNY     68  65  90 CALM      30.08R
6HR MIN TEMP:  65; 6HR MAX TEMP:  73;

ST CHARLES     SUNNY     68  66  93 SE3       30.08S
6HR MIN TEMP:  65; 6HR MAX TEMP:  70;


$$
MOZ072>076-082>087-097>100-106>115-221300-
...SOUTH CENTRAL AND SOUTHEAST MISSOURI...

CITY           SKY/WX    TMP DP  RH WIND       PRES   REMARKS
CAPE GIRARDEAU FOG       65  64  97 CALM      30.11R VSB 1/4
6HR MIN TEMP:  62; 6HR MAX TEMP:  66;

FARMINGTON     SUNNY     63  61  94 CALM      30.13F
6HR MIN TEMP:  61; 6HR MAX TEMP:  66;

POPLAR BLUFF   SUNNY     65  61  87 CALM      30.10S FOG
6HR MIN TEMP:  62; 6HR MAX TEMP:  67;

WEST PLAINS    CLEAR     66  62  87 CALM      30.13S
6HR MIN TEMP:  62; 6HR MAX TEMP:  70;


$$


USA.gov is the U.S. government's official web portal to all federal, state and local government web resources and services.